Date,TemperatureHighF,TemperatureAvgF,TemperatureLowF,DewpointHighF,DewpointAvgF,DewpointLowF,HumidityHigh,HumidityAvg,HumidityLow,PressureMaxIn,PressureMinIn,WindSpeedMaxMPH,WindSpeedAvgMPH,GustSpeedMaxMPH,PrecipitationSumIn
2013-1-1,26.0,23.8,19.0,19.0,15.9,13.0,78,71,60,0.00,40.00,6,4,0,0.00
2013-1-2,24.0,19.3,16.0,15.0,12.7,9.0,79,74,68,0.00,40.00,7,4,0,0.00
2013-1-3,30.0,21.6,13.0,22.0,14.5,4.0,83,73,63,0.00,40.00,8,6,0,0.00
2013-1-4,27.0,22.8,15.0,22.0,16.8,10.0,85,77,62,0.00,40.00,9,8,0,0.00
2013-1-5,33.0,26.9,20.0,28.0,21.0,17.0,91,79,63,0.00,40.00,8,6,0,0.00
2013-1-6,34.0,32.2,30.0,29.0,26.9,23.0,85,80,71,0.00,40.00,10,8,0,0.00
2013-1-7,33.0,27.6,20.0,23.0,20.5,17.0,89,75,58,0.00,40.00,11,6,0,0.00
2013-1-8,37.0,30.3,24.0,24.0,21.9,19.0,85,71,60,0.00,40.00,10,6,0,0.00
2013-1-9,46.0,38.6,33.0,32.0,26.8,20.0,78,63,41,0.00,40.00,10,8,0,0.00
2013-1-10,39.0,33.0,26.0,30.0,25.6,23.0,88,74,61,0.00,40.00,8,5,0,0.09
2013-1-11,53.0,45.1,35.0,48.0,41.5,33.0,92,87,80,0.00,40.00,11,10,0,0.22
2013-1-12,56.0,50.1,42.0,45.0,41.9,32.0,85,73,61,0.00,40.00,9,7,0,0.14
2013-1-13,38.0,32.8,27.0,35.0,30.6,23.0,94,91,87,0.00,40.00,8,6,0,0.06
2013-1-14,23.0,20.7,19.0,17.0,15.1,14.0,85,78,70,0.00,40.00,7,4,0,0.00
2013-1-15,28.0,20.6,13.0,18.0,13.9,10.0,89,76,58,0.00,40.00,4,2,0,0.01
2013-1-16,33.0,25.8,19.0,24.0,16.7,14.0,87,69,43,0.00,40.00,10,5,0,0.00
2013-1-17,34.0,28.6,22.0,27.0,19.0,11.0,80,67,56,0.00,40.00,12,7,0,0.00
2013-1-18,35.0,27.8,21.0,21.0,16.0,11.0,75,61,53,0.00,40.00,13,8,0,0.00
2013-1-19,45.0,40.1,36.0,33.0,27.6,23.0,70,60,53,0.00,40.00,13,10,0,0.00
2013-1-20,41.0,20.6,15.0,28.0,11.5,7.0,79,67,52,0.00,40.00,15,9,0,0.00
2013-1-21,17.0,12.2,7.0,11.0,7.1,4.0,85,79,66,0.00,40.00,7,5,0,0.00
2013-1-22,9.0,5.6,3.0,3.0,0.6,-1.0,84,79,67,0.00,40.00,7,5,0,0.00
2013-1-23,15.0,9.1,6.0,12.0,3.5,0.0,88,77,58,0.00,40.00,8,5,0,0.00
2013-1-24,18.0,11.3,5.0,11.0,1.2,-4.0,85,67,39,0.00,40.00,7,3,0,0.00
2013-1-25,22.0,17.6,14.0,19.0,10.0,0.0,86,72,54,0.00,40.00,7,5,0,0.00
2013-1-26,26.0,22.7,20.0,20.0,16.1,14.0,90,76,63,0.00,40.00,7,4,0,0.00
2013-1-27,30.0,24.6,19.0,25.0,17.6,13.0,82,74,65,0.00,40.00,15,8,0,0.00
2013-1-28,45.0,39.2,32.0,44.0,37.3,29.0,94,93,89,0.00,40.00,11,7,0,0.04
2013-1-29,56.0,50.7,36.0,54.0,48.8,35.0,95,92,87,0.00,40.00,16,10,0,0.26
2013-1-30,53.0,47.0,29.0,51.0,44.4,28.0,93,91,85,0.00,40.00,11,6,0,0.24
2013-1-31,26.0,17.2,13.0,24.0,13.4,9.0,92,84,76,0.00,40.00,10,8,0,0.00
2013-2-1,12.0,9.3,7.0,9.0,3.8,-2.0,88,78,61,0.00,40.00,9,6,0,0.00
2013-2-2,21.0,15.5,8.0,17.0,10.0,2.0,87,78,67,0.00,40.00,6,5,0,0.00
2013-2-3,19.0,16.0,13.0,15.0,10.6,6.0,84,78,70,0.00,40.00,8,5,0,0.00
2013-2-4,22.0,19.3,17.0,18.0,15.7,12.0,89,85,78,0.00,40.00,5,4,0,0.00
2013-2-5,28.0,21.6,14.0,25.0,17.8,11.0,91,85,71,0.00,40.00,7,6,0,0.00
2013-2-6,32.0,25.9,20.0,22.0,18.2,16.0,89,73,50,0.00,40.00,6,5,0,0.12
2013-2-7,38.0,30.8,25.0,29.0,23.2,19.0,86,73,59,0.00,40.00,8,6,0,0.02
2013-2-8,32.0,28.6,25.0,30.0,24.4,20.0,94,83,68,0.00,40.00,10,7,0,0.00
2013-2-9,32.0,23.9,16.0,20.0,17.5,13.0,92,78,60,0.00,40.00,9,5,0,0.03
2013-2-10,39.0,33.3,27.0,36.0,26.1,19.0,90,75,66,0.00,40.00,12,9,0,0.01
2013-2-11,46.0,36.1,30.0,42.0,27.4,21.0,91,70,65,0.00,40.00,14,12,0,0.00
2013-2-12,29.0,27.3,26.0,21.0,20.1,20.0,77,74,68,0.00,40.00,9,6,0,0.00
2013-2-13,41.0,31.2,22.0,27.0,22.6,19.0,87,71,53,0.00,40.00,7,5,0,0.00
2013-2-14,38.0,34.2,32.0,30.0,27.7,24.0,86,77,68,0.00,40.00,11,8,0,0.00
2013-2-15,32.0,25.9,20.0,24.0,19.3,14.0,84,76,60,0.00,40.00,9,5,0,0.00
2013-2-16,21.0,16.7,10.0,18.0,11.4,7.0,90,79,67,0.00,40.00,9,5,0,0.00
2013-2-17,26.0,16.9,9.0,10.0,8.4,6.0,89,71,47,0.00,40.00,5,2,0,0.01
2013-2-18,47.0,32.0,21.0,40.0,21.1,10.0,77,63,53,0.00,40.00,14,10,0,0.08
2013-2-19,43.0,22.5,14.0,39.0,19.4,11.0,91,86,84,0.00,40.00,16,10,0,0.02
2013-2-20,21.0,16.9,14.0,15.0,12.6,11.0,87,82,74,0.00,40.00,9,6,0,0.00
2013-2-21,25.0,21.6,19.0,17.0,15.0,13.0,79,75,71,0.00,40.00,10,6,0,0.00
2013-2-22,32.0,25.5,20.0,30.0,22.1,14.0,94,87,74,0.00,40.00,13,9,0,0.01
2013-2-23,29.0,26.1,24.0,21.0,19.1,16.0,82,74,61,0.00,40.00,8,7,0,0.02
2013-2-24,33.0,27.4,23.0,23.0,20.5,18.0,82,76,65,0.00,40.00,6,4,0,0.00
2013-2-25,39.0,29.6,20.0,23.0,21.2,19.0,92,72,47,0.00,40.00,5,4,0,0.00
2013-2-26,33.0,31.0,29.0,30.0,24.1,20.0,94,76,64,0.00,40.00,18,9,0,0.07
2013-2-27,33.0,32.0,31.0,32.0,31.0,30.0,95,95,95,0.00,40.00,3,2,0,0.21
2013-2-28,35.0,32.4,30.0,31.0,28.9,26.0,95,86,76,0.00,40.00,8,5,0,0.00
2013-3-1,32.0,29.1,25.0,25.0,20.6,17.0,82,70,59,0.00,40.00,9,7,0,0.00
2013-3-2,28.0,24.4,20.0,17.0,15.1,12.0,76,67,57,0.00,40.00,8,5,0,0.00
2013-3-3,29.0,23.5,17.0,17.0,13.3,11.0,81,65,46,0.00,40.00,10,5,0,0.00
2013-3-4,32.0,24.2,15.0,16.0,13.8,12.0,88,65,43,0.00,40.00,5,3,0,0.00
2013-3-5,29.0,28.1,26.0,26.0,20.8,16.0,93,74,58,0.00,40.00,13,9,0,0.00
2013-3-6,35.0,29.9,25.0,27.0,24.0,21.0,91,78,63,0.00,40.00,11,6,0,0.09
2013-3-7,35.0,31.9,26.0,29.0,24.0,19.0,90,73,52,0.00,40.00,7,4,0,0.00
2013-3-8,40.0,29.4,21.0,20.0,18.7,17.0,90,66,41,0.00,40.00,5,3,0,0.00
2013-3-9,41.0,33.9,27.0,30.0,23.8,18.0,74,66,53,0.00,40.00,12,7,0,0.00
2013-3-10,54.0,48.1,40.0,40.0,35.7,30.0,80,62,51,0.00,40.00,13,8,0,0.12
2013-3-11,53.0,44.4,33.0,46.0,39.1,30.0,92,83,53,0.00,40.00,12,8,0,0.07
2013-3-12,33.0,31.2,29.0,29.0,25.4,21.0,92,80,59,0.00,40.00,10,8,0,0.00
2013-3-13,28.0,25.3,22.0,26.0,18.4,11.0,91,76,54,0.00,40.00,13,8,0,0.00
2013-3-14,38.0,27.2,19.0,21.0,14.7,11.0,77,60,41,0.00,40.00,7,3,0,0.03
2013-3-15,44.0,34.8,29.0,34.0,29.6,24.0,93,81,61,0.00,40.00,7,5,0,0.03
2013-3-16,36.0,31.9,27.0,34.0,28.3,20.0,94,86,69,0.00,40.00,11,7,0,0.00
2013-3-17,33.0,28.7,25.0,21.0,17.3,15.0,73,62,47,0.00,40.00,10,7,0,0.00
2013-3-18,33.0,28.9,26.0,31.0,24.5,17.0,93,84,69,0.00,40.00,13,9,0,0.03
2013-3-19,30.0,24.4,18.0,22.0,14.3,12.0,84,66,46,0.00,40.00,13,10,0,0.00
2013-3-20,28.0,21.4,16.0,14.0,11.7,9.0,88,66,56,0.00,40.00,9,8,0,0.00
2013-3-21,26.0,20.8,14.0,19.0,15.2,12.0,90,79,63,0.00,40.00,9,5,0,0.00
2013-3-22,36.0,27.3,18.0,20.0,16.5,14.0,84,65,43,0.00,40.00,8,4,0,0.02
2013-3-23,34.0,27.5,22.0,21.0,19.3,18.0,87,71,54,0.00,40.00,8,4,0,0.00
2013-3-24,36.0,29.9,24.0,23.0,21.3,20.0,83,71,54,0.00,40.00,18,10,0,0.00
2013-3-25,35.0,31.8,29.0,28.0,23.4,21.0,78,70,59,0.00,40.00,12,9,0,0.00
2013-3-26,38.0,33.0,30.0,27.0,26.1,24.0,86,75,56,0.00,40.00,10,7,0,0.00
2013-3-27,41.0,35.4,30.0,30.0,21.3,14.0,92,61,33,0.00,40.00,12,6,0,0.00
2013-3-28,47.0,36.3,27.0,26.0,19.9,16.0,79,54,31,0.00,40.00,8,4,0,0.00
2013-3-29,49.0,39.3,29.0,21.0,16.3,13.0,70,41,23,0.00,40.00,8,3,0,0.00
2013-3-30,55.0,41.6,28.0,30.0,18.8,-99.9,66,45,29,0.00,40.00,8,4,0,0.00
2013-3-31,54.0,47.3,39.0,39.0,33.2,27.0,88,59,41,0.00,40.00,14,8,0,0.03
2013-4-1,37.0,30.8,25.0,28.0,14.8,9.0,75,51,36,0.00,40.00,12,9,0,0.00
2013-4-2,37.0,30.7,24.0,19.0,11.5,5.0,82,47,25,0.00,40.00,12,6,0,0.00
2013-4-3,45.0,32.5,23.0,17.0,10.5,3.0,66,44,17,0.00,40.00,9,4,0,0.00
2013-4-4,54.0,39.6,27.0,17.0,14.3,12.0,63,38,18,0.00,40.00,7,5,0,0.00
2013-4-5,48.0,40.6,32.0,28.0,20.5,11.0,70,47,22,0.00,40.00,9,6,0,0.00
2013-4-6,61.0,46.4,31.0,34.0,24.6,21.0,71,44,28,0.00,40.00,17,11,0,0.00
2013-4-7,59.0,49.9,41.0,44.0,36.4,31.0,78,60,40,0.00,40.00,15,9,0,0.00
2013-4-8,64.0,46.9,39.0,52.0,38.6,31.0,90,73,54,0.00,40.00,15,9,0,0.08
2013-4-9,71.0,51.4,38.0,56.0,44.2,36.0,93,78,57,0.00,40.00,9,6,0,0.00
2013-4-10,50.0,42.9,39.0,45.0,40.0,37.0,93,89,82,0.00,40.00,14,10,0,0.32
2013-4-11,41.0,39.8,38.0,38.0,37.3,36.0,93,91,89,0.00,40.00,16,12,0,1.32
2013-4-12,42.0,38.3,36.0,36.0,34.0,30.0,93,85,69,0.00,40.00,10,6,0,0.15
2013-4-13,40.0,37.0,32.0,30.0,26.5,23.0,89,65,49,0.00,40.00,10,7,0,0.02
2013-4-14,58.0,43.3,33.0,41.0,31.9,24.0,82,64,50,0.00,40.00,10,6,0,0.01
2013-4-15,64.0,55.4,50.0,54.0,46.2,40.0,90,71,64,0.00,40.00,12,9,0,0.25
2013-4-16,50.0,45.0,41.0,42.0,35.2,26.0,92,71,42,0.00,40.00,8,6,0,0.32
2013-4-17,54.0,46.1,41.0,42.0,35.1,31.0,87,65,53,0.00,40.00,13,9,0,0.12
2013-4-18,70.0,57.0,45.0,61.0,52.9,42.0,92,87,73,0.00,40.00,16,10,0,0.80
2013-4-19,58.0,38.9,33.0,55.0,32.3,27.0,90,76,65,0.00,40.00,13,10,0,0.38
2013-4-20,38.0,33.2,30.0,30.0,18.9,10.0,92,57,31,0.00,40.00,11,8,0,0.01
2013-4-21,50.0,37.7,26.0,26.0,19.4,14.0,68,48,34,0.00,40.00,9,6,0,0.00
2013-4-22,63.0,48.6,34.0,30.0,26.9,24.0,75,47,22,0.00,40.00,9,6,0,0.00
2013-4-23,64.0,51.7,39.0,52.0,39.9,30.0,92,66,43,0.00,40.00,11,8,0,0.50
2013-4-24,43.0,38.0,33.0,37.0,28.5,19.0,93,72,37,0.00,40.00,11,8,0,0.07
2013-4-25,47.0,42.2,38.0,33.0,28.1,25.0,75,58,41,0.00,40.00,10,7,0,0.01
2013-4-26,62.0,48.5,35.0,36.0,30.2,26.0,73,51,33,0.00,40.00,12,8,0,0.00
2013-4-27,68.0,55.9,43.0,38.0,32.1,-99.9,70,47,24,0.00,40.00,10,5,0,0.00
2013-4-28,59.0,53.3,48.0,51.0,46.1,37.0,90,78,43,0.00,40.00,6,3,0,0.17
2013-4-29,70.0,56.4,48.0,52.0,48.4,46.0,93,77,44,0.00,40.00,9,3,0,0.00
2013-4-30,79.0,71.5,57.0,56.0,54.2,49.0,74,55,45,0.00,40.00,14,11,0,0.00
2013-5-1,83.0,71.9,61.0,56.0,50.8,48.0,68,49,30,0.00,40.00,11,6,0,0.00
2013-5-2,79.0,67.0,53.0,53.0,50.7,46.0,78,57,36,0.00,40.00,7,5,0,0.00
2013-5-3,77.0,60.3,43.0,54.0,45.5,39.0,86,62,36,0.00,40.00,11,5,0,0.00
2013-5-4,71.0,63.8,58.0,44.0,39.1,35.0,52,40,26,0.00,40.00,12,6,0,0.00
2013-5-5,72.0,60.4,51.0,42.0,38.0,33.0,61,45,26,0.00,40.00,11,6,0,0.00
2013-5-6,76.0,64.4,53.0,46.0,34.8,24.0,56,36,15,0.00,40.00,9,5,0,0.00
2013-5-7,74.0,64.5,54.0,47.0,44.4,42.0,64,49,34,0.00,40.00,7,4,0,0.00
2013-5-8,77.0,66.4,55.0,50.0,45.9,40.0,77,49,29,0.00,40.00,6,3,0,0.00
2013-5-9,78.0,64.1,54.0,56.0,46.3,41.0,84,55,26,0.00,40.00,6,2,0,0.08
2013-5-10,60.0,54.5,45.0,57.0,51.2,42.0,92,88,78,0.00,40.00,8,5,0,0.13
2013-5-11,52.0,44.1,38.0,45.0,37.7,-99.9,93,83,58,0.00,40.00,13,6,0,0.00
2013-5-12,46.0,39.2,35.0,33.0,27.8,24.0,90,64,42,0.00,40.00,11,7,0,0.00
2013-5-13,55.0,43.3,31.0,30.0,23.2,15.0,87,52,20,0.00,40.00,9,4,0,0.00
2013-5-14,79.0,62.0,48.0,50.0,36.9,22.0,50,39,33,0.00,40.00,12,7,0,0.00
2013-5-15,76.0,72.6,63.0,56.0,48.2,42.0,54,42,31,0.00,40.00,11,7,0,0.00
2013-5-16,81.0,56.9,53.0,44.0,17.5,-99.9,67,40,20,0.00,40.00,8,3,0,0.00
2013-5-17,77.0,63.3,56.0,45.0,31.9,-99.9,57,41,31,0.00,40.00,9,7,0,0.00
2013-5-18,80.0,66.5,56.0,55.0,46.0,38.0,62,48,38,0.00,40.00,7,5,0,0.00
2013-5-19,86.0,72.6,58.0,59.0,53.2,47.0,67,52,34,0.00,40.00,9,5,0,0.00
2013-5-20,86.0,77.6,68.0,66.0,61.3,55.0,82,59,36,0.00,40.00,12,8,0,0.00
2013-5-21,80.0,73.4,62.0,62.0,60.6,59.0,91,65,49,0.00,40.00,10,6,0,0.01
2013-5-22,71.0,66.9,61.0,63.0,61.1,58.0,90,82,72,0.00,40.00,7,5,0,0.32
2013-5-23,61.0,51.8,44.0,58.0,48.7,40.0,92,88,84,0.00,40.00,11,6,0,0.06
2013-5-24,55.0,46.0,35.0,39.0,34.8,32.0,91,67,41,0.00,40.00,9,5,0,0.00
2013-5-25,66.0,51.5,37.0,43.0,37.0,32.0,93,63,29,0.00,40.00,5,3,0,0.00
2013-5-26,68.0,57.1,47.0,40.0,37.7,35.0,75,51,29,0.00,40.00,8,4,0,0.00
2013-5-27,61.0,55.2,52.0,51.0,43.7,30.0,90,70,32,0.00,40.00,11,7,0,0.19
2013-5-28,77.0,66.6,54.0,67.0,60.4,51.0,92,81,64,0.00,40.00,10,7,0,0.36
2013-5-29,79.0,70.4,62.0,66.0,61.7,59.0,90,75,58,0.00,40.00,8,5,0,0.12
2013-5-30,84.0,75.7,69.0,65.0,62.0,59.0,76,63,47,0.00,40.00,12,8,0,0.00
2013-5-31,76.0,70.9,65.0,65.0,62.8,61.0,89,76,65,0.00,40.00,12,8,0,0.29
2013-6-1,73.0,68.3,64.0,62.0,58.5,-99.9,89,75,63,0.00,40.00,11,8,0,0.14
2013-6-2,63.0,55.7,45.0,58.0,49.4,38.0,91,80,61,0.00,40.00,10,7,0,0.03
2013-6-3,65.0,52.4,39.0,44.0,39.6,37.0,92,65,38,0.00,40.00,7,3,0,0.00
2013-6-4,72.0,58.4,46.0,46.0,41.8,37.0,81,57,32,0.00,40.00,7,4,0,0.00
2013-6-5,73.0,64.2,56.0,46.0,42.2,40.0,65,46,31,0.00,40.00,8,6,0,0.00
2013-6-6,68.0,61.5,56.0,52.0,47.5,43.0,75,60,47,0.00,40.00,9,6,0,0.00
2013-6-7,70.0,59.0,50.0,51.0,47.7,43.0,86,68,45,0.00,40.00,8,5,0,0.00
2013-6-8,73.0,62.3,50.0,51.0,48.3,43.0,84,62,41,0.00,40.00,5,3,0,0.00
2013-6-9,78.0,69.2,60.0,59.0,55.0,49.0,76,61,47,0.00,40.00,7,5,0,0.00
2013-6-10,72.0,67.2,63.0,64.0,61.8,57.0,91,83,58,0.00,40.00,8,4,0,0.59
2013-6-11,81.0,68.1,59.0,64.0,60.0,57.0,93,77,50,0.00,40.00,5,3,0,0.01
2013-6-12,83.0,73.4,66.0,71.0,65.6,60.0,88,77,63,0.00,40.00,8,3,0,0.17
2013-6-13,73.0,64.9,55.0,61.0,55.3,50.0,91,73,53,0.00,40.00,13,7,0,0.08
2013-6-14,76.0,62.2,52.0,55.0,52.1,50.0,92,73,42,0.00,40.00,7,4,0,0.00
2013-6-15,73.0,64.2,56.0,63.0,57.4,52.0,89,79,59,0.00,40.00,7,3,0,0.19
2013-6-16,79.0,70.3,64.0,64.0,60.1,50.0,89,72,36,0.00,40.00,8,5,0,0.36
2013-6-17,84.0,73.1,64.0,62.0,55.6,47.0,89,59,28,0.00,40.00,5,3,0,0.10
2013-6-18,72.0,64.2,59.0,59.0,54.9,47.0,91,74,49,0.00,40.00,8,5,0,0.01
2013-6-19,76.0,61.9,50.0,46.0,42.7,39.0,76,52,27,0.00,40.00,6,3,0,0.00
2013-6-20,81.0,66.1,54.0,54.0,49.9,47.0,79,59,33,0.00,40.00,4,2,0,0.00
2013-6-22,83.0,78.5,73.0,70.0,68.1,66.0,79,70,62,0.00,40.00,5,3,0,0.00
2013-6-23,86.0,74.4,65.0,66.0,63.3,61.0,87,70,45,0.00,40.00,8,4,0,0.00
2013-6-25,84.0,75.7,66.0,72.0,68.8,64.0,92,79,62,0.00,40.00,8,4,0,0.08
2013-6-26,81.0,71.1,65.0,67.0,64.9,62.0,91,82,58,0.00,40.00,7,4,0,0.59
2013-6-27,81.0,71.4,66.0,69.0,65.7,63.0,93,83,61,0.00,40.00,7,3,0,0.16
2013-6-28,76.0,68.7,63.0,63.0,60.8,58.0,92,77,53,0.00,40.00,8,4,0,0.04
2013-6-29,76.0,65.3,60.0,62.0,59.9,58.0,93,83,56,0.00,40.00,6,2,0,0.32
2013-6-30,77.0,66.7,60.0,60.0,56.3,52.0,88,71,48,0.00,40.00,9,5,0,0.00
2013-7-1,73.0,65.3,59.0,55.0,47.0,37.0,69,51,40,0.00,40.00,10,7,0,0.00
2013-7-2,64.0,60.7,56.0,60.0,54.7,47.0,92,81,59,0.00,40.00,7,5,0,0.76
2013-7-3,78.0,69.8,62.0,63.0,61.3,59.0,93,76,54,0.00,40.00,9,4,0,0.00
2013-7-4,77.0,69.5,60.0,62.0,59.9,57.0,92,73,51,0.00,40.00,4,2,0,0.00
2013-7-5,81.0,72.3,62.0,65.0,61.7,59.0,91,71,53,0.00,40.00,4,2,0,0.00
2013-7-6,80.0,72.1,67.0,67.0,65.0,64.0,90,79,62,0.00,40.00,5,2,0,0.00
2013-7-7,82.0,73.4,67.0,69.0,66.8,65.0,92,80,60,0.00,40.00,6,3,0,1.09
2013-7-8,78.0,73.4,72.0,69.0,67.7,65.0,88,82,72,0.00,40.00,6,3,0,0.01
2013-7-9,84.0,74.2,69.0,73.0,69.5,66.0,92,86,71,0.00,40.00,6,2,0,0.52
2013-7-10,81.0,72.9,63.0,73.0,60.6,-99.9,91,71,46,0.00,40.00,9,5,0,0.00
2013-7-11,76.0,66.7,57.0,57.0,53.3,50.0,88,64,40,0.00,40.00,7,3,0,0.00
2013-7-12,79.0,68.1,55.0,58.0,54.6,52.0,89,65,39,0.00,40.00,6,3,0,0.00
2013-7-13,82.0,71.1,61.0,62.0,59.5,55.0,83,68,50,0.00,40.00,5,3,0,0.00
2013-7-14,86.0,74.9,64.0,69.0,64.3,61.0,89,71,51,0.00,40.00,5,4,0,0.00
2013-7-15,88.0,77.3,70.0,75.0,69.9,67.0,90,78,59,0.00,40.00,4,2,0,0.18
2013-7-16,89.0,80.5,73.0,72.0,70.1,67.0,91,72,48,0.00,40.00,4,2,0,0.00
2013-7-17,89.0,80.2,73.0,73.0,69.9,68.0,86,71,52,0.00,40.00,5,2,0,0.00
2013-7-18,89.0,82.9,73.0,73.0,70.7,69.0,87,67,54,0.00,40.00,5,3,0,0.00
2013-7-19,90.0,82.5,76.0,71.0,69.8,67.0,83,66,48,0.00,40.00,8,5,0,0.00
2013-7-20,85.0,77.3,69.0,71.0,61.0,-99.9,86,61,40,0.00,40.00,6,3,0,0.00
2013-7-21,85.0,72.7,63.0,64.0,61.1,58.0,83,68,46,0.00,40.00,5,3,0,0.15
2013-7-22,83.0,71.9,65.0,66.0,63.5,62.0,91,77,54,0.00,40.00,7,4,0,0.43
2013-7-23,77.0,70.6,59.0,66.0,61.4,52.0,86,73,55,0.00,40.00,10,5,0,0.00
2013-7-24,72.0,61.8,49.0,52.0,48.5,46.0,89,63,42,0.00,40.00,6,4,0,0.00
2013-7-25,74.0,64.2,54.0,57.0,52.4,49.0,87,67,45,0.00,40.00,4,2,0,0.00
2013-7-26,74.0,65.8,59.0,60.0,56.1,52.0,88,71,54,0.00,40.00,6,3,0,0.01
2013-7-27,68.0,62.9,56.0,61.0,56.6,47.0,92,80,66,0.00,40.00,8,4,0,0.00
2013-7-28,63.0,57.1,53.0,51.0,48.3,46.0,83,72,60,0.00,40.00,7,4,0,0.00
2013-7-29,69.0,60.6,56.0,55.0,51.9,48.0,86,74,57,0.00,40.00,6,2,0,0.00
2013-7-30,77.0,64.4,52.0,59.0,55.1,50.0,93,74,49,0.00,40.00,4,2,0,0.00
2013-7-31,68.0,65.4,63.0,64.0,61.8,60.0,92,88,77,0.00,40.00,4,2,0,0.15
2013-8-1,76.0,67.1,61.0,64.0,56.1,49.0,93,71,40,0.00,40.00,7,3,0,0.00
2013-8-2,77.0,67.3,57.0,65.0,58.8,51.0,88,75,65,0.00,40.00,5,2,0,0.00
2013-8-3,76.0,68.4,60.0,64.0,55.7,48.0,93,67,38,0.00,40.00,7,3,0,0.00
2013-8-4,74.0,63.6,54.0,55.0,51.8,49.0,92,67,44,0.00,40.00,5,3,0,0.00
2013-8-5,72.0,61.5,49.0,60.0,52.7,45.0,91,73,57,0.00,40.00,4,2,0,0.00
2013-8-6,78.0,68.4,62.0,67.0,62.3,57.0,92,82,67,0.00,40.00,6,4,0,0.34
2013-8-7,79.0,70.6,65.0,70.0,65.9,63.0,92,85,67,0.00,40.00,6,3,0,0.06
2013-8-8,77.0,69.1,60.0,64.0,57.8,56.0,91,69,51,0.00,40.00,8,4,0,0.00
2013-8-9,78.0,68.7,58.0,62.0,57.0,54.0,88,68,43,0.00,40.00,4,2,0,0.00
2013-8-10,79.0,70.6,64.0,62.0,57.3,53.0,90,65,42,0.00,40.00,5,3,0,0.00
2013-8-11,76.0,66.5,57.0,60.0,55.3,52.0,87,69,46,0.00,40.00,4,1,0,0.00
2013-8-12,80.0,69.3,65.0,66.0,62.0,59.0,92,78,57,0.00,40.00,4,2,0,0.53
2013-8-13,66.0,60.7,54.0,63.0,52.4,47.0,92,76,50,0.00,40.00,8,5,0,0.01
2013-8-14,68.0,55.9,45.0,48.0,45.5,42.0,91,70,44,0.00,40.00,5,2,0,0.00
2013-8-15,73.0,55.9,44.0,53.0,46.0,-99.9,93,75,43,0.00,40.00,4,2,0,0.00
2013-8-16,76.0,59.4,50.0,56.0,44.6,-99.9,93,69,37,0.00,40.00,4,2,0,0.00
2013-8-17,78.0,65.8,55.0,57.0,50.5,-99.9,87,62,39,0.00,40.00,5,3,0,0.00
2013-8-18,81.0,67.6,57.0,59.0,54.5,52.0,85,65,37,0.00,40.00,5,3,0,0.00
2013-8-19,81.0,64.0,57.0,61.0,49.0,-99.9,92,70,40,0.00,40.00,4,2,0,0.00
2013-8-20,84.0,72.4,61.0,64.0,60.7,58.0,91,68,44,0.00,40.00,5,2,0,0.00
2013-8-21,86.0,75.4,66.0,66.0,62.5,58.0,87,66,40,0.00,40.00,5,3,0,0.00
2013-8-22,76.0,69.3,64.0,68.0,64.0,62.0,92,84,66,0.00,40.00,8,4,0,0.12
2013-8-23,79.0,70.0,61.0,64.0,56.5,48.0,93,67,34,0.00,40.00,6,3,0,0.00
2013-8-24,83.0,67.7,58.0,55.0,50.4,-99.9,83,59,31,0.00,40.00,6,3,0,0.00
2013-8-25,86.0,71.4,59.0,61.0,57.5,54.0,85,64,43,0.00,40.00,5,4,0,0.00
2013-8-26,85.0,75.7,68.0,69.0,62.4,58.0,71,64,53,0.00,40.00,5,4,0,0.00
2013-8-27,88.0,76.9,72.0,71.0,68.2,67.0,84,75,56,0.00,40.00,5,3,0,0.00
2013-8-28,83.0,77.2,71.0,69.0,68.1,67.0,89,74,61,0.00,40.00,6,4,0,0.00
2013-8-29,88.0,75.2,66.0,67.0,63.9,60.0,92,71,38,0.00,40.00,3,2,0,0.00
2013-8-30,90.0,77.4,66.0,70.0,65.5,63.0,91,70,44,0.00,40.00,6,4,0,0.00
2013-8-31,80.0,72.3,67.0,70.0,63.7,-99.9,92,77,60,0.00,40.00,5,2,0,0.00
2013-9-1,83.0,73.9,68.0,68.0,66.0,65.0,91,78,58,0.00,40.00,4,2,0,0.05
2013-9-2,74.0,68.1,55.0,67.0,59.7,51.0,91,75,51,0.00,40.00,8,4,0,0.00
2013-9-3,73.0,62.0,52.0,54.0,51.6,49.0,91,71,48,0.00,40.00,6,3,0,0.00
2013-9-4,78.0,65.7,55.0,59.0,53.2,51.0,92,67,40,0.00,40.00,6,3,0,0.00
2013-9-5,77.0,64.2,57.0,57.0,46.0,34.0,91,57,21,0.00,40.00,7,3,0,0.00
2013-9-6,81.0,64.7,50.0,58.0,48.5,43.0,85,59,30,0.00,40.00,5,3,0,0.00
2013-9-7,85.0,70.3,63.0,65.0,55.6,-99.9,88,63,39,0.00,40.00,6,3,0,0.02
2013-9-8,78.0,69.3,64.0,65.0,61.5,59.0,91,77,51,0.00,40.00,11,5,0,0.00
2013-9-9,90.0,74.2,62.0,69.0,60.8,51.0,80,64,46,0.00,40.00,5,4,0,0.00
2013-9-10,94.0,83.3,74.0,68.0,62.7,56.0,76,53,29,0.00,40.00,7,4,0,0.00
2013-9-11,92.0,81.0,68.0,69.0,65.0,62.0,90,60,38,0.00,40.00,7,4,0,0.42
2013-9-12,79.0,69.4,59.0,66.0,56.4,46.0,92,67,32,0.00,40.00,8,3,0,0.00
2013-9-13,63.0,55.4,48.0,47.0,41.6,36.0,81,62,36,0.00,40.00,7,5,0,0.00
2013-9-14,70.0,52.8,41.0,44.0,36.9,-99.9,93,63,26,0.00,40.00,4,2,0,0.00
2013-9-15,58.0,54.1,50.0,53.0,44.7,38.0,92,72,55,0.00,40.00,6,3,0,0.06
2013-9-16,65.0,56.1,50.0,52.0,47.8,43.0,92,75,45,0.00,40.00,6,4,0,0.00
2013-9-17,69.0,55.2,43.0,47.0,43.7,40.0,90,68,38,0.00,40.00,6,4,0,0.00
2013-9-18,69.0,54.4,53.0,56.0,47.1,46.0,80,76,62,0.00,40.00,5,4,0,0.00
2013-9-19,70.0,67.6,65.0,66.0,62.7,56.0,92,85,62,0.00,40.00,7,4,0,0.61
2013-9-20,72.0,70.0,66.0,68.0,65.2,59.0,90,84,78,0.00,40.00,7,4,0,0.00
2013-9-21,64.0,58.0,54.0,55.0,47.4,-99.9,91,71,51,0.00,40.00,8,4,0,0.00
2013-9-22,63.0,53.7,44.0,48.0,43.3,40.0,91,70,44,0.00,40.00,6,3,0,0.00
2013-9-23,66.0,50.8,40.0,44.0,41.7,38.0,92,74,43,0.00,40.00,6,4,0,0.00
2013-9-24,69.0,54.7,43.0,46.0,42.2,40.0,89,66,34,0.00,40.00,7,4,0,0.00
2013-9-25,72.0,56.5,47.0,52.0,46.0,43.0,92,70,39,0.00,40.00,7,4,0,0.00
2013-9-26,78.0,61.2,48.0,50.0,44.6,37.0,89,61,23,0.00,40.00,6,4,0,0.00
2013-9-27,78.0,63.1,50.0,50.0,45.1,42.0,75,55,30,0.00,40.00,6,4,0,0.00
2013-9-28,81.0,63.3,52.0,53.0,47.7,-99.9,91,63,30,0.00,40.00,8,5,0,0.00
2013-9-29,69.0,62.5,53.0,59.0,52.3,48.0,92,70,48,0.00,40.00,6,4,0,0.19
2013-9-30,70.0,54.6,45.0,53.0,47.2,43.0,93,79,37,0.00,40.00,5,2,0,0.00
2013-10-1,70.0,67.5,66.0,60.0,60.0,60.0,80,76,70,0.00,40.00,5,4,0,0.00
2013-10-2,81.0,68.4,62.0,60.0,52.4,40.0,92,63,26,0.00,40.00,5,2,0,0.00
2013-10-3,73.0,66.2,61.0,66.0,59.6,47.0,91,80,56,0.00,40.00,5,3,0,0.39
2013-10-4,79.0,70.3,64.0,67.0,63.9,61.0,90,80,65,0.00,40.00,5,2,0,0.00
2013-10-5,76.0,69.1,65.0,67.0,64.7,62.0,93,86,70,0.00,40.00,6,4,0,0.37
2013-10-6,66.0,58.9,51.0,64.0,55.1,41.0,93,87,69,0.00,40.00,6,3,0,0.39
2013-10-7,60.0,49.3,42.0,48.0,42.0,38.0,91,77,53,0.00,40.00,7,4,0,0.04
2013-10-8,73.0,54.9,45.0,47.0,43.4,40.0,88,68,35,0.00,40.00,6,4,0,0.00
2013-10-9,71.0,63.9,53.0,46.0,41.0,37.0,74,45,29,0.00,40.00,6,4,0,0.00
2013-10-10,74.0,59.5,47.0,47.0,43.7,41.0,85,59,32,0.00,40.00,5,3,0,0.00
2013-10-11,75.0,59.7,48.0,48.0,42.8,39.0,88,58,29,0.00,40.00,5,4,0,0.00
2013-10-12,77.0,61.4,51.0,61.0,48.3,-99.9,91,68,35,0.00,40.00,7,4,0,0.06
2013-10-13,62.0,54.2,46.0,59.0,43.6,37.0,91,69,39,0.00,40.00,7,3,0,0.01
2013-10-14,63.0,49.9,41.0,43.0,39.3,37.0,90,69,39,0.00,40.00,10,4,0,0.00
2013-10-15,62.0,53.6,45.0,59.0,48.9,41.0,92,84,73,0.00,40.00,7,5,0,0.13
2013-10-16,60.0,50.2,45.0,58.0,45.5,41.0,91,83,80,0.00,40.00,6,4,0,0.01
2013-10-17,49.0,47.5,45.0,45.0,44.7,43.0,92,89,86,0.00,40.00,7,4,0,0.39
2013-10-18,57.0,44.9,39.0,43.0,39.3,37.0,92,81,56,0.00,40.00,7,4,0,0.00
2013-10-19,52.0,43.4,41.0,42.0,34.3,-99.9,92,75,40,0.00,40.00,7,4,0,0.10
2013-10-20,59.0,49.2,40.0,40.0,37.5,35.0,86,66,42,0.00,40.00,10,6,0,0.00
2013-10-21,56.0,47.9,40.0,46.0,38.7,26.0,91,71,52,0.00,40.00,9,6,0,0.12
2013-10-22,45.0,38.3,29.0,31.0,27.1,24.0,88,65,47,0.00,40.00,6,3,0,0.00
2013-10-23,41.0,36.1,33.0,34.0,30.9,23.0,94,82,52,0.00,40.00,6,2,0,0.00
2013-10-24,37.0,33.4,32.0,33.0,31.7,30.0,94,92,85,0.00,40.00,5,2,0,0.36
2013-10-25,45.0,37.9,32.0,35.0,28.9,23.0,95,72,41,0.00,40.00,6,3,0,0.17
2013-10-26,48.0,43.1,40.0,35.0,26.8,-99.9,67,55,51,0.00,40.00,11,8,0,0.00
2013-10-27,53.0,44.0,37.0,34.0,29.4,24.0,82,59,32,0.00,40.00,7,3,0,0.00
2013-10-28,55.0,41.8,31.0,35.0,29.4,-99.9,89,67,43,0.00,40.00,9,4,0,0.00
2013-10-29,54.0,43.0,33.0,37.0,33.8,30.0,89,71,49,0.00,40.00,8,5,0,0.00
2013-10-30,60.0,49.5,40.0,54.0,43.0,36.0,92,79,61,0.00,40.00,7,5,0,0.78
2013-10-31,62.0,59.3,55.0,60.0,56.7,52.0,93,91,89,0.00,40.00,11,9,0,1.51
2013-11-1,52.0,45.8,44.0,49.0,40.8,36.0,93,83,68,0.00,40.00,10,6,0,0.08
2013-11-2,46.0,42.5,40.0,42.0,37.8,-99.9,93,87,75,0.00,40.00,6,3,0,0.08
2013-11-3,47.0,42.4,35.0,34.0,33.1,32.0,90,70,57,0.00,40.00,6,4,0,0.00
2013-11-4,51.0,43.6,37.0,38.0,33.3,31.0,84,68,51,0.00,40.00,12,8,0,0.00
2013-11-5,53.0,50.5,48.0,46.0,42.2,39.0,77,72,68,0.00,40.00,9,6,0,0.00
2013-11-6,55.0,49.5,40.0,52.0,44.2,37.0,92,83,58,0.00,40.00,11,9,0,0.42
2013-11-7,44.0,38.0,34.0,37.0,29.5,25.0,90,72,46,0.00,40.00,8,5,0,0.00
2013-11-8,46.0,38.2,30.0,32.0,28.5,24.0,92,70,42,0.00,40.00,6,3,0,0.00
2013-11-9,55.0,47.6,42.0,38.0,31.0,-99.9,67,54,47,0.00,40.00,12,10,0,0.00
2013-11-10,45.0,41.0,37.0,31.0,27.7,23.0,72,58,47,0.00,40.00,12,8,0,0.00
2013-11-11,43.0,37.5,28.0,35.0,29.6,24.0,93,73,60,0.00,40.00,10,7,0,0.04
2013-11-12,31.0,26.7,23.0,22.0,19.4,16.0,82,73,60,0.00,40.00,7,4,0,0.02
2013-11-13,30.0,23.0,20.0,18.0,16.8,16.0,86,78,55,0.00,40.00,8,4,0,0.00
2013-11-14,50.0,43.9,34.0,20.0,18.6,16.0,49,36,30,0.00,40.00,10,8,0,0.00
2013-11-15,48.0,43.4,40.0,29.0,23.4,19.0,53,45,38,0.00,40.00,10,7,0,0.00
2013-11-16,54.0,47.5,40.0,48.0,40.5,29.0,87,76,59,0.00,40.00,13,9,0,0.00
2013-11-17,61.0,57.0,46.0,58.0,53.1,39.0,90,86,76,0.00,40.00,16,12,0,0.01
2013-11-18,45.0,40.2,36.0,35.0,31.8,28.0,74,71,70,0.00,40.00,12,9,0,0.00
2013-11-19,41.0,38.0,35.0,23.0,22.0,21.0,57,52,45,0.00,40.00,4,3,0,0.00
2013-11-20,43.0,34.0,27.0,29.0,23.7,22.0,78,66,45,0.00,40.00,10,6,0,0.02
2013-11-21,47.0,43.1,38.0,43.0,37.8,33.0,93,81,72,0.00,40.00,8,6,0,0.05
2013-11-22,45.0,39.0,30.0,43.0,35.1,27.0,93,85,66,0.00,40.00,9,5,0,0.01
2013-11-23,28.0,23.6,16.0,25.0,18.6,13.0,92,81,55,0.00,40.00,13,6,0,0.00
2013-11-24,23.0,17.8,14.0,15.0,10.8,2.0,90,74,50,0.00,40.00,7,3,0,0.01
2013-11-25,29.0,23.2,17.0,24.0,12.0,3.0,86,62,52,0.00,40.00,9,7,0,0.00
2013-11-26,32.0,29.0,27.0,25.0,23.4,22.0,84,79,70,0.00,40.00,9,6,0,0.00
2013-11-27,28.0,23.3,20.0,22.0,18.0,15.0,90,80,57,0.00,40.00,8,6,0,0.00
2013-11-28,26.0,23.6,21.0,20.0,15.4,12.0,89,71,58,0.00,40.00,8,4,0,0.00
2013-11-29,34.0,28.6,25.0,20.0,18.8,18.0,80,67,51,0.00,40.00,6,2,0,0.07
2013-11-30,45.0,35.1,29.0,28.0,24.1,20.0,75,64,50,0.00,40.00,8,7,0,0.00
2013-12-1,42.0,37.3,33.0,31.0,27.1,25.0,81,66,54,0.00,40.00,6,4,0,0.00
2013-12-2,38.0,32.4,28.0,29.0,26.4,25.0,90,78,59,0.00,40.00,6,4,0,0.00
2013-12-3,45.0,37.4,32.0,43.0,34.9,28.0,93,90,81,0.00,40.00,8,7,0,0.04
2013-12-4,57.0,48.5,44.0,53.0,46.1,42.0,93,91,88,0.00,40.00,10,7,0,0.00
2013-12-5,57.0,36.0,27.0,52.0,28.6,18.0,83,74,63,0.00,40.00,9,7,0,0.00
2013-12-6,27.0,24.6,22.0,18.0,16.2,12.0,72,70,65,0.00,40.00,7,6,0,0.00
2013-12-7,22.0,19.2,15.0,13.0,11.4,9.0,82,70,61,0.00,40.00,7,5,0,0.00
2013-12-8,23.0,18.2,13.0,21.0,13.1,9.0,91,79,67,0.00,40.00,11,7,0,0.00
2013-12-9,25.0,22.0,18.0,23.0,17.8,9.0,92,83,67,0.00,40.00,10,7,0,0.00
2013-12-10,20.0,12.3,2.0,12.0,4.3,-5.0,80,70,58,0.00,40.00,13,7,0,0.00
2013-12-11,20.0,17.0,15.0,17.0,12.8,10.0,88,82,71,0.00,40.00,9,6,0,0.00
2013-12-12,15.0,12.5,6.0,7.0,0.2,-7.0,69,57,47,0.00,40.00,10,7,0,0.00
2013-12-13,28.0,20.5,15.0,19.0,13.2,9.0,79,73,66,0.00,40.00,7,4,0,0.05
2013-12-14,25.0,21.3,19.0,21.0,18.1,16.0,90,88,86,0.00,40.00,13,10,0,0.00
2013-12-15,24.0,18.8,14.0,21.0,15.0,9.0,89,84,78,0.00,40.00,8,6,0,0.00
2013-12-16,19.0,13.5,7.0,14.0,8.5,4.0,89,79,62,0.00,40.00,5,4,0,0.00
2013-12-17,27.0,21.1,16.0,23.0,18.2,13.0,92,88,83,0.00,40.00,7,5,0,0.00
2013-12-18,27.0,24.6,22.0,21.0,16.0,11.0,81,70,51,0.00,40.00,11,7,0,0.00
2013-12-19,42.0,36.5,29.0,34.0,29.4,16.0,83,74,58,0.00,40.00,9,6,0,0.04
2013-12-20,41.0,37.4,33.0,40.0,35.9,32.0,95,94,93,0.00,40.00,5,3,0,0.07
2013-12-21,33.0,32.8,32.0,32.0,31.8,31.0,96,96,96,0.00,40.00,12,4,0,0.14
2013-12-22,33.0,31.9,31.0,31.0,30.2,30.0,95,94,92,0.00,40.00,9,4,0,0.04
2013-12-23,30.0,23.8,14.0,28.0,19.4,9.0,94,83,67,0.00,40.00,8,6,0,0.00
2013-12-24,17.0,9.4,3.0,10.0,4.1,-2.0,84,78,71,0.00,40.00,7,6,0,0.01
2013-12-25,24.0,19.4,12.0,21.0,14.5,9.0,90,80,73,0.00,40.00,11,7,0,0.00
2013-12-26,27.0,24.2,23.0,23.0,19.4,14.0,92,81,66,0.00,40.00,7,6,0,0.00
2013-12-27,40.0,33.8,29.0,29.0,26.4,23.0,86,74,60,0.00,40.00,8,5,0,0.04
2013-12-28,47.0,39.5,33.0,32.0,29.6,28.0,81,68,55,0.00,40.00,11,7,0,0.00
2013-12-29,38.0,32.3,23.0,30.0,25.3,20.0,88,76,60,0.00,40.00,12,7,0,0.00
2013-12-30,20.0,17.2,14.0,16.0,10.5,8.0,83,74,65,0.00,40.00,7,5,0,0.00
2013-12-31,14.0,12.9,12.0,10.0,8.4,4.0,87,82,64,0.00,40.00,8,6,0,0.00
2014-1-1,14.0,13.0,11.0,11.0,9.7,7.0,88,86,84,0.00,40.00,11,7,0,0.00
2014-1-2,13.0,10.6,5.0,8.0,3.9,-5.0,85,74,55,0.00,40.00,13,10,0,0.00